TimeMST,TemperatureF,Dew PointF,Humidity,Sea Level PressureIn,VisibilityMPH,Wind Direction,Wind SpeedMPH,Gust SpeedMPH,PrecipitationIn,Events,Conditions,WindDirDegrees,DateUTC
12:53 AM,28.9,15.1,56,30.13,10.0,WSW,3.5,-,N/A,,Clear,240,2014-01-11 07:53:00
1:53 AM,30.9,15.1,52,30.14,10.0,SW,8.1,-,N/A,,Clear,220,2014-01-11 08:53:00
2:53 AM,30.0,16.0,56,30.18,10.0,SW,10.4,-,N/A,,Clear,220,2014-01-11 09:53:00
3:53 AM,27.0,15.1,61,30.22,10.0,Calm,Calm,-,N/A,,Clear,0,2014-01-11 10:53:00
4:53 AM,24.1,15.1,69,30.26,10.0,East,6.9,-,N/A,,Clear,80,2014-01-11 11:53:00
5:53 AM,24.1,15.1,69,30.30,10.0,East,8.1,-,N/A,,Clear,90,2014-01-11 12:53:00
6:53 AM,21.0,14.0,74,30.32,10.0,Calm,Calm,-,N/A,,Clear,0,2014-01-11 13:53:00
7:53 AM,19.9,14.0,78,30.34,10.0,NE,5.8,-,N/A,,Clear,40,2014-01-11 14:53:00
8:53 AM,27.0,16.0,63,30.34,10.0,Calm,Calm,-,N/A,,Clear,0,2014-01-11 15:53:00
9:53 AM,32.0,17.1,54,30.33,10.0,NE,3.5,-,N/A,,Clear,50,2014-01-11 16:53:00
10:53 AM,37.0,16.0,42,30.30,10.0,Variable,3.5,-,N/A,,Clear,0,2014-01-11 17:53:00
11:53 AM,39.9,17.1,40,30.25,10.0,Variable,5.8,-,N/A,,Clear,0,2014-01-11 18:53:00
12:53 PM,42.1,17.1,37,30.21,10.0,Calm,Calm,-,N/A,,Clear,0,2014-01-11 19:53:00
1:53 PM,45.0,17.1,33,30.16,10.0,Calm,Calm,-,N/A,,Clear,0,2014-01-11 20:53:00
2:53 PM,46.0,18.0,33,30.15,10.0,Calm,Calm,-,N/A,,Clear,0,2014-01-11 21:53:00
3:53 PM,46.0,19.0,34,30.16,10.0,SW,4.6,-,N/A,,Clear,220,2014-01-11 22:53:00
4:53 PM,42.1,19.0,40,30.19,10.0,WSW,3.5,-,N/A,,Clear,240,2014-01-11 23:53:00
5:53 PM,39.0,18.0,43,30.20,10.0,North,4.6,-,N/A,,Clear,10,2014-01-12 00:53:00
6:53 PM,33.1,18.0,54,30.25,10.0,North,9.2,-,N/A,,Clear,10,2014-01-12 01:53:00
7:53 PM,28.9,18.0,64,30.25,10.0,North,6.9,-,N/A,,Clear,350,2014-01-12 02:53:00
8:53 PM,28.0,18.0,66,30.21,10.0,NNE,5.8,-,N/A,,Clear,20,2014-01-12 03:53:00
9:53 PM,24.1,16.0,71,30.18,10.0,Calm,Calm,-,N/A,,Clear,0,2014-01-12 04:53:00
10:53 PM,26.1,18.0,71,30.12,10.0,Calm,Calm,-,N/A,,Clear,0,2014-01-12 05:53:00
11:53 PM,23.0,17.1,78,30.07,10.0,ENE,4.6,-,N/A,,Clear,60,2014-01-12 06:53:00